Temperature
9 9 9 9 9 9 10 10 10 10 10 10 10 10 10 11 11 11 11 11 12 11 11 11 12 12 12 12 12 11 11 11 11 11 11 11 11 11 11 11 11 11 11
8 8 8 8 8 9 9 9 9 9 10 10 10 10 10 10 10 10 11 11 11 11 11 11 11 11 11 11 11 11 11 11 11 11 11 11 11 11 11 11 11 11 11
7 7 7 8 8 8 8 8 8 9 9 9 9 9 10 10 10 10 10 10 10 11 11 11 11 11 11 11 11 11 11 11 11 11 11 11 11 11 11 11 11 11 10
6 6 7 7 7 7 7 8 8 8 8 8 8 9 9 9 9 10 10 10 10 10 10 10 11 11 11 11 11 11 11 11 11 11 11 11 11 11 11 11 11 10 10
6 6 6 6 7 7 7 7 7 7 7 8 8 8 8 9 9 9 9 9 9 10 10 10 10 10 10 10 10 10 10 11 10 10 10 10 10 10 10 10 10 10 10
5 5 5 6 6 6 6 6 6 7 7 7 7 7 8 8 8 9 9 9 9 9 9 9 10 10 10 10 10 10 10 10 10 10 10 10 10 10 10 10 10 10 10
4 4 5 5 5 5 5 6 6 6 6 6 6 7 7 8 8 8 8 8 9 9 9 9 9 9 9 10 10 9 10 10 10 10 10 10 10 10 10 10 10 10 10
4 4 4 4 4 4 5 5 5 5 6 6 6 6 7 7 7 8 8 8 8 8 8 8 9 9 9 9 9 9 9 9 9 9 10 9 9 9 9 9 9 9 9
3 3 3 3 4 4 4 4 4 5 5 5 5 5 6 7 6 7 7 7 7 8 8 8 8 8 8 8 9 9 9 9 9 9 9 9 9 9 9 9 9 9 9
3 3 3 3 3 3 4 4 4 4 4 4 5 5 5 5 6 6 6 7 7 7 7 7 7 8 8 8 8 8 8 8 8 8 8 9 9 9 9 9 9 9 9
2 2 2 2 2 3 3 3 3 3 3 4 4 4 5 5 5 5 6 6 6 6 7 7 7 7 7 7 8 8 8 8 8 8 8 8 8 8 8 8 8 8 8
1 2 2 2 2 2 2 3 3 3 3 3 3 4 4 4 4 5 5 5 6 6 6 6 6 7 7 7 7 7 8 8 8 8 8 8 8 8 8 8 8 8 8
1 1 1 1 1 2 2 2 2 2 2 3 3 3 3 3 4 4 4 5 5 5 6 6 6 6 6 6 7 7 7 7 7 7 7 7 7 7 7 7 7 7 7
0 1 1 1 1 1 1 1 2 2 2 2 2 3 3 3 3 4 4 4 4 5 5 5 5 6 6 6 6 6 7 7 7 7 7 7 7 7 7 7 7 7 7
-1 -0 0 0 1 1 1 1 1 1 1 2 2 2 2 3 3 3 3 4 4 4 4 5 5 5 5 5 6 6 6 6 6 6 6 6 6 6 6 6 6 6 6
-1 -1 -1 -0 -0 -0 0 0 0 1 1 1 1 2 2 2 2 3 3 3 3 4 4 4 4 5 5 5 5 5 5 5 6 6 6 6 6 6 6 6 6 6 6
-2 -2 -1 -1 -1 -1 -1 -0 -0 -0 0 0 1 1 1 1 2 2 2 3 3 3 3 3 4 4 4 4 4 4 4 5 5 5 5 5 5 5 5 5 5 6 5
-3 -2 -2 -2 -2 -1 -1 -1 -1 -1 -1 -0 -0 0 1 1 1 1 2 2 2 3 3 3 3 3 3 4 4 4 4 4 4 4 4 5 5 5 5 5 5 5 5
-3 -3 -3 -3 -2 -2 -2 -2 -2 -1 -1 -1 -1 -1 -0 0 0 1 1 1 2 2 2 2 2 3 3 3 3 3 3 3 3 4 4 4 4 4 4 4 4 4 4
-4 -4 -4 -3 -3 -3 -3 -3 -2 -2 -2 -2 -2 -1 -1 -1 -0 0 1 1 1 1 2 2 2 2 2 2 2 2 2 3 3 3 3 3 3 4 4 4 4 4 4
-4 -4 -4 -4 -4 -4 -3 -3 -3 -3 -3 -3 -2 -2 -2 -1 -1 -1 -0 0 0 1 1 1 1 1 1 1 1 1 1 2 2 2 2 3 3 3 3 3 3 3 3
-5 -5 -5 -4 -4 -4 -4 -4 -4 -3 -3 -3 -3 -3 -3 -2 -2 -1 -1 -1 -0 -0 -0 0 1 1 1 1 1 1 1 1 1 1 2 2 2 2 2 3 3 3 3
-5 -5 -5 -5 -5 -4 -4 -4 -4 -4 -4 -4 -4 -3 -3 -3 -3 -2 -2 -1 -1 -1 -1 -0 -0 0 0 0 0 0 0 0 0 1 1 1 1 1 2 2 2 2 2
-6 -6 -6 -5 -5 -5 -5 -5 -5 -5 -4 -4 -4 -4 -4 -3 -3 -3 -3 -2 -2 -2 -1 -1 -1 -0 -0 -0 -0 -0 -0 -0 -0 0 0 -0 0 1 1 1 2 2 2
-6 -6 -6 -6 -6 -6 -5 -5 -5 -5 -5 -5 -5 -4 -4 -4 -4 -3 -3 -3 -3 -2 -2 -2 -2 -1 -1 -1 -1 -1 -1 -1 -1 -1 -1 -1 -0 -0 0 1 1 1 1
-7 -7 -6 -6 -6 -6 -6 -6 -6 -6 -5 -5 -5 -5 -4 -4 -4 -4 -4 -4 -3 -3 -3 -2 -2 -2 -2 -2 -2 -2 -2 -2 -2 -2 -2 -1 -1 -1 -1 -0 0 0 1
Wind_Speed
2 3 2 2 3 2 1 2 1 1 2 2 2 3 3 3 2 2 1 1 1 2 3 4 4 4 4 5 6 6 6 6 5 5 5 5 5 5 5 5 4 4 4
3 3 2 2 3 3 2 2 2 2 2 2 3 3 3 3 3 3 3 3 2 3 3 4 4 4 4 5 6 6 6 5 5 5 5 4 4 5 5 5 4 4 4
3 3 2 2 3 4 3 3 2 2 2 2 3 4 3 4 4 4 4 4 4 4 4 4 4 4 4 4 5 6 6 5 5 5 5 4 4 4 4 4 5 4 4
4 3 2 3 3 4 3 3 2 2 3 3 3 3 4 4 5 5 5 4 4 5 5 5 4 4 5 5 5 5 5 5 5 5 5 5 5 4 4 5 5 5 5
4 4 3 3 4 4 3 3 3 3 3 3 3 4 4 4 5 5 5 5 5 5 5 6 6 5 5 5 5 6 6 6 6 5 4 4 5 5 5 5 5 6 6
5 4 4 4 4 3 3 3 4 3 3 3 3 4 5 5 5 6 6 5 5 6 6 6 6 6 7 6 6 6 7 7 7 6 6 5 5 5 7 6 6 6 6
5 5 4 4 4 4 4 5 4 4 3 2 3 3 4 6 6 5 5 5 5 6 6 6 6 5 6 7 6 6 7 7 8 8 7 7 7 6 6 8 7 7 7
5 5 5 4 4 4 5 5 4 3 3 3 3 3 3 4 4 4 5 5 5 5 5 6 7 6 6 6 6 7 7 8 9 9 9 8 8 7 7 6 7 8 7
5 5 6 5 5 4 4 5 5 5 4 4 4 3 3 3 2 4 5 5 5 5 5 6 7 7 6 6 6 6 7 7 8 9 9 10 9 9 8 8 7 7 8
5 5 6 6 6 5 5 5 5 6 6 5 5 5 6 4 3 3 4 5 5 5 5 5 6 6 7 6 5 5 6 6 7 9 9 10 10 10 9 9 9 8 7
5 5 6 6 6 6 6 6 6 7 6 7 6 5 5 5 7 5 5 6 5 5 5 6 6 6 6 6 5 5 4 6 6 8 8 9 9 10 10 10 9 9 9
5 5 6 6 6 6 7 6 6 8 7 8 7 7 7 6 6 6 6 7 6 5 6 6 5 5 5 6 5 5 4 5 6 7 8 7 8 8 9 9 9 9 8
5 6 6 6 6 7 7 7 7 7 8 8 8 7 7 8 7 7 7 6 7 5 5 5 5 4 5 5 5 5 6 6 7 7 8 8 8 7 7 7 7 8 7
5 7 7 7 7 7 7 7 7 7 7 8 8 8 7 7 7 7 7 6 6 5 5 5 4 5 4 4 5 6 7 7 8 8 8 9 8 8 7 7 7 8 8
6 7 7 7 7 7 7 7 6 7 7 7 8 8 7 7 7 7 7 7 7 7 7 5 4 5 5 5 5 6 7 7 9 9 9 8 8 8 8 7 7 7 8
7 7 7 7 7 7 7 7 7 7 7 7 6 8 8 7 7 7 7 7 8 8 7 6 5 5 5 5 6 6 7 7 9 10 9 9 8 9 8 8 8 7 8
7 7 7 7 7 7 7 7 7 7 7 7 7 7 7 7 7 7 7 7 7 8 8 6 5 5 6 6 5 6 6 6 7 9 9 9 9 9 9 9 9 9 9
7 7 8 7 7 7 7 7 8 7 7 8 8 7 8 6 7 6 6 7 8 8 7 7 6 5 6 6 6 6 5 6 7 8 9 10 10 10 10 10 10 9 10
7 7 7 7 7 7 8 8 7 7 7 8 7 7 8 7 7 6 6 7 7 7 6 6 6 5 4 4 5 5 6 5 6 7 9 9 10 11 11 11 10 10 10
7 6 7 7 7 7 7 8 7 7 7 7 7 7 7 7 7 7 6 7 6 7 7 7 6 5 5 4 5 5 5 5 5 5 7 8 9 10 11 11 11 11 11
6 6 6 7 7 6 6 7 7 7 7 7 7 7 7 7 8 7 6 6 7 6 7 7 7 6 5 5 6 5 6 5 5 5 5 6 7 7 8 10 11 11 10
6 6 6 6 7 6 8 10 9 7 7 7 7 7 7 8 8 9 9 9 8 8 8 7 7 8 8 6 6 6 5 5 5 4 5 6 5 6 7 8 10 11 11
6 6 6 6 7 8 9 10 10 8 7 7 8 7 6 6 8 7 8 9 9 9 9 9 9 9 8 8 7 7 7 7 6 4 5 7 6 7 7 9 10 11 12
6 6 6 7 7 8 9 10 10 8 7 7 7 8 8 7 7 7 7 7 8 8 8 8 9 9 8 7 8 8 8 7 6 5 5 6 6 6 6 8 11 13 13
6 6 7 7 7 8 8 9 10 7 7 7 7 7 8 8 8 9 7 7 8 7 7 9 10 9 9 9 8 6 6 6 6 5 5 5 4 5 6 7 8 12 13
7 7 7 7 7 7 8 9 9 6 6 6 6 7 8 8 8 9 7 7 8 7 6 6 7 7 7 8 9 9 8 7 6 5 5 5 4 3 4 4 5 7 9
Wind_Direction
357 348 331 337 330 316 308 295 260 248 232 219 213 205 202 206 223 215 174 144 208 193 175 168 169 165 165 170 161 163 158 154 149 153 150 147 153 155 151 145 136 123 121
338 333 323 320 315 303 287 279 269 254 244 233 222 220 222 217 224 227 222 198 200 217 207 196 190 185 180 181 177 172 170 170 166 162 161 158 160 164 162 161 156 148 135
327 320 311 306 304 304 284 270 261 250 242 239 234 232 233 233 226 228 229 227 213 206 209 211 205 203 197 189 182 179 177 177 177 175 180 183 175 171 176 179 179 170 163
320 311 305 304 299 290 276 265 251 245 237 236 241 239 234 235 234 231 229 227 226 218 207 206 216 219 209 202 198 194 190 181 178 181 189 193 185 181 186 196 195 197 192
315 308 299 300 290 283 273 262 251 246 249 244 247 252 246 235 232 231 227 222 225 226 221 207 211 220 220 215 216 214 206 195 193 194 193 195 202 205 207 208 209 207 206
312 309 299 292 287 276 265 261 265 255 249 254 253 255 254 242 232 228 227 220 219 223 226 224 217 218 218 219 228 232 223 210 206 208 210 211 210 214 217 214 214 215 214
312 302 297 289 283 266 264 266 262 257 249 249 258 258 254 241 231 227 226 223 220 224 229 228 224 223 222 217 226 236 236 222 211 212 218 220 220 222 223 220 219 219 221
312 305 298 292 283 276 260 258 258 257 259 232 249 246 241 226 223 230 230 227 225 222 226 229 228 227 231 226 227 233 238 232 224 220 221 223 225 227 227 223 222 221 219
300 299 296 291 283 277 262 257 253 251 253 241 233 235 237 236 242 222 230 228 225 226 228 234 235 229 233 236 230 228 232 231 229 228 227 229 232 232 229 222 223 227 224
292 293 293 289 282 274 267 258 254 256 252 246 240 244 253 255 246 234 224 227 230 235 238 238 241 235 229 232 233 231 224 229 233 234 234 235 236 234 231 226 229 230 232
288 289 288 286 281 276 270 260 254 253 252 249 242 244 251 249 243 244 237 231 238 238 240 240 239 237 231 227 228 228 224 233 241 240 239 238 237 237 237 233 233 234 234
287 290 290 288 284 280 274 268 259 251 251 254 249 240 243 242 236 240 243 233 238 242 241 241 237 237 232 225 227 227 226 234 244 244 242 241 242 246 246 239 233 233 235
286 287 292 287 282 281 279 274 263 255 251 252 249 245 245 248 246 247 252 248 242 246 241 236 233 236 231 222 227 226 229 232 242 248 246 242 245 249 243 239 238 235 234
284 287 286 284 284 284 282 277 266 256 252 250 251 250 248 249 249 245 243 248 244 241 238 235 229 226 232 232 242 236 238 232 237 243 248 250 245 244 238 235 240 239 236
292 289 284 283 285 284 280 277 270 264 259 254 252 252 252 251 249 248 241 237 239 237 236 232 223 226 238 241 240 240 248 242 239 239 245 250 250 243 236 232 235 240 237
290 289 287 284 283 282 278 273 272 267 265 263 258 252 251 252 250 247 241 241 242 240 240 235 235 235 234 243 235 239 247 253 243 240 242 243 244 241 235 233 233 240 240
292 288 286 285 283 282 279 274 271 266 263 265 261 257 257 256 251 250 245 241 241 240 242 246 240 233 229 235 238 238 243 248 250 241 243 243 239 241 238 235 234 237 240
290 289 285 283 284 282 279 273 272 269 263 263 263 262 261 259 255 257 254 247 244 240 239 243 244 238 236 231 235 236 245 246 252 247 242 242 241 243 242 237 234 233 235
288 287 285 283 281 281 278 273 271 269 265 263 263 261 261 257 257 257 256 256 250 244 238 237 245 241 240 234 236 240 244 247 254 253 241 241 244 245 246 238 233 234 233
286 285 284 284 281 278 276 274 272 268 264 263 263 262 261 258 258 261 255 256 249 245 240 233 239 240 236 233 228 235 248 249 254 258 248 250 249 246 244 239 236 234 231
287 286 285 285 284 281 275 277 275 268 264 265 264 262 262 263 264 263 262 260 248 242 241 233 234 238 238 227 228 234 244 253 255 245 245 247 247 246 243 239 235 232 231
290 288 285 285 285 283 288 289 286 274 267 264 264 263 264 261 264 267 269 269 259 242 239 237 235 234 235 236 236 236 243 248 253 228 240 253 246 248 246 241 239 234 235
287 285 286 286 284 285 290 292 293 285 273 269 267 265 266 267 267 265 266 266 266 262 252 247 241 236 236 232 233 236 237 242 253 249 243 252 247 248 250 244 236 233 234
283 282 283 284 285 286 290 292 294 286 278 271 267 264 264 265 264 266 263 262 262 259 255 253 256 252 245 237 232 235 241 252 267 254 241 254 249 252 254 248 234 231 233
283 282 282 282 282 287 292 294 294 283 274 272 268 265 264 264 265 264 261 261 266 271 267 260 264 265 259 251 243 235 234 239 256 254 236 243 255 269 260 251 239 226 230
280 283 282 282 281 283 290 293 292 282 278 276 274 269 263 265 265 262 258 257 260 265 269 268 264 264 258 250 245 234 230 236 248 252 237 233 249 260 258 247 237 233 233
Height
1537 1538 1538 1539 1539 1539 1540 1540 1541 1542 1542 1543 1544 1544 1545 1546 1546 1546 1547 1547 1548 1549 1549 1549 1550 1550 1550 1551 1551 1551 1552 1553 1553 1554 1554 1555 1555 1556 1556 1556 1557 1557 1557
1535 1536 1536 1536 1537 1537 1538 1538 1539 1539 1540 1541 1541 1542 1543 1544 1544 1544 1545 1546 1546 1547 1547 1548 1548 1549 1549 1550 1550 1551 1551 1552 1552 1553 1553 1554 1554 1555 1555 1555 1556 1556 1556
1533 1534 1534 1534 1534 1535 1535 1536 1536 1537 1538 1538 1539 1540 1540 1541 1542 1542 1543 1543 1544 1545 1545 1546 1547 1547 1548 1548 1549 1549 1550 1550 1551 1551 1552 1553 1553 1553 1554 1554 1554 1555 1555
1532 1532 1532 1532 1532 1532 1533 1533 1534 1534 1535 1535 1536 1537 1537 1538 1539 1539 1540 1541 1542 1542 1543 1544 1545 1546 1546 1547 1547 1548 1548 1549 1549 1550 1551 1551 1552 1552 1552 1553 1553 1553 1554
1529 1529 1529 1529 1529 1530 1530 1531 1531 1531 1532 1532 1533 1534 1534 1535 1536 1536 1537 1538 1539 1540 1541 1541 1542 1543 1544 1545 1545 1546 1546 1547 1548 1548 1549 1549 1550 1550 1551 1551 1551 1552 1552
1527 1526 1526 1526 1527 1527 1527 1528 1528 1528 1529 1529 1530 1531 1531 1532 1532 1533 1534 1535 1536 1537 1538 1539 1539 1540 1541 1542 1543 1544 1544 1545 1545 1546 1547 1547 1547 1548 1548 1549 1549 1550 1550
1524 1523 1523 1523 1523 1523 1524 1524 1525 1525 1525 1526 1527 1528 1528 1529 1529 1530 1531 1532 1532 1533 1534 1535 1536 1537 1538 1539 1540 1541 1541 1542 1542 1543 1544 1544 1545 1545 1546 1546 1547 1547 1547
1520 1520 1520 1519 1519 1519 1520 1521 1521 1521 1522 1523 1525 1525 1526 1526 1525 1526 1527 1528 1529 1530 1531 1532 1533 1533 1534 1535 1536 1537 1538 1539 1539 1540 1541 1541 1542 1543 1543 1544 1544 1544 1545
1517 1517 1516 1516 1516 1516 1516 1517 1517 1518 1518 1519 1521 1523 1523 1521 1522 1522 1523 1524 1525 1526 1527 1528 1529 1529 1530 1531 1532 1533 1534 1535 1536 1536 1537 1538 1539 1539 1540 1541 1541 1541 1542
1514 1513 1513 1512 1512 1512 1512 1513 1513 1514 1515 1515 1516 1518 1519 1519 1520 1518 1519 1520 1521 1522 1523 1523 1524 1525 1526 1527 1528 1529 1530 1531 1532 1533 1533 1534 1535 1536 1536 1537 1537 1538 1538
1510 1509 1509 1508 1508 1508 1508 1508 1509 1509 1510 1511 1511 1512 1514 1514 1515 1515 1514 1515 1516 1517 1518 1519 1520 1520 1521 1522 1523 1524 1526 1527 1528 1529 1530 1530 1531 1532 1532 1533 1533 1534 1534
1505 1505 1505 1504 1504 1504 1504 1504 1504 1504 1505 1506 1507 1507 1509 1509 1510 1511 1510 1510 1511 1512 1513 1514 1515 1516 1516 1517 1518 1519 1521 1522 1523 1525 1525 1526 1527 1528 1528 1529 1529 1530 1530
1501 1501 1500 1500 1500 1499 1499 1499 1499 1499 1500 1501 1501 1502 1503 1504 1505 1506 1506 1506 1506 1507 1508 1509 1510 1510 1511 1512 1513 1514 1516 1517 1519 1520 1521 1522 1522 1523 1523 1524 1525 1525 1525
1496 1496 1496 1495 1495 1495 1494 1494 1494 1494 1494 1495 1496 1497 1497 1498 1499 1500 1501 1502 1502 1502 1502 1503 1504 1505 1506 1507 1508 1510 1511 1512 1513 1514 1515 1516 1517 1518 1519 1519 1520 1521 1521
1492 1492 1491 1491 1490 1490 1490 1490 1489 1489 1489 1489 1491 1491 1491 1492 1493 1494 1495 1497 1498 1497 1496 1497 1498 1499 1500 1502 1503 1504 1505 1506 1507 1508 1510 1510 1512 1513 1514 1514 1515 1515 1516
1489 1487 1486 1486 1485 1485 1485 1484 1484 1484 1484 1484 1485 1485 1486 1486 1487 1488 1489 1490 1491 1492 1491 1491 1492 1493 1495 1496 1498 1499 1499 1500 1501 1503 1504 1505 1506 1507 1508 1509 1509 1510 1510
1484 1483 1482 1481 1480 1480 1479 1479 1478 1478 1478 1478 1479 1479 1480 1481 1481 1482 1482 1483 1485 1486 1485 1485 1487 1488 1489 1490 1492 1493 1494 1495 1495 1496 1498 1498 1500 1501 1502 1503 1503 1504 1505
1479 1478 1477 1476 1475 1474 1474 1474 1473 1473 1473 1473 1472 1472 1473 1474 1474 1475 1476 1477 1478 1479 1480 1480 1481 1482 1483 1485 1486 1487 1488 1489 1489 1490 1491 1492 1493 1494 1495 1496 1497 1498 1499
1474 1473 1472 1470 1469 1469 1469 1468 1468 1467 1467 1467 1467 1467 1467 1468 1468 1469 1469 1470 1471 1473 1474 1474 1475 1476 1477 1478 1480 1481 1482 1483 1484 1484 1485 1486 1487 1488 1489 1490 1490 1491 1492
1469 1468 1467 1466 1464 1464 1463 1463 1463 1462 1462 1461 1461 1461 1461 1462 1462 1463 1463 1463 1465 1466 1467 1469 1469 1470 1471 1472 1474 1475 1476 1477 1477 1478 1479 1480 1480 1481 1482 1483 1484 1484 1485
1465 1464 1462 1461 1460 1459 1459 1458 1458 1457 1457 1456 1456 1456 1455 1456 1457 1457 1457 1457 1459 1460 1461 1462 1463 1465 1466 1467 1468 1469 1470 1470 1471 1472 1472 1473 1474 1474 1475 1476 1477 1477 1478
1460 1459 1458 1457 1455 1454 1454 1454 1453 1452 1452 1451 1450 1450 1450 1451 1451 1451 1451 1452 1453 1454 1455 1456 1457 1458 1459 1461 1462 1463 1464 1464 1464 1465 1466 1466 1467 1467 1468 1469 1470 1471 1472
1456 1455 1453 1452 1451 1450 1449 1449 1448 1448 1447 1446 1446 1445 1445 1445 1445 1445 1446 1446 1447 1448 1450 1451 1451 1451 1453 1454 1456 1457 1457 1458 1458 1459 1460 1459 1460 1461 1461 1462 1463 1464 1465
1451 1450 1449 1448 1446 1445 1445 1444 1444 1443 1442 1442 1441 1441 1440 1439 1439 1440 1440 1440 1441 1441 1443 1444 1444 1445 1447 1448 1450 1451 1451 1452 1453 1454 1454 1454 1454 1454 1455 1455 1456 1457 1459
1447 1446 1444 1443 1442 1441 1440 1440 1440 1439 1438 1437 1436 1436 1435 1434 1434 1435 1435 1434 1434 1435 1437 1438 1438 1439 1440 1442 1443 1445 1445 1446 1445 1446 1448 1448 1447 1448 1448 1448 1449 1450 1451
1442 1441 1440 1439 1438 1437 1436 1435 1435 1434 1433 1432 1431 1430 1429 1429 1429 1429 1430 1429 1429 1430 1431 1431 1432 1432 1433 1434 1436 1438 1439 1439 1439 1439 1440 1442 1441 1442 1441 1441 1442 1443 1444